Regional Weather Roundup
Issued by NWS Little Rock, AR

Home | Current Version | Previous Version | Text Only | Print | Product List | Glossary Off
Versions: 1 2 3 4 5 6 7 8 9 10 11 12 13 14 15 16 17 18 19 20 21 22 23 24 25 26 27 28 29 30 31 32 33 34 35 36 37 38 39 40 41 42 43 44 45 46 47 48 49 50

000
ASUS44 KLZK 080905
RWRLZK

WEATHER ROUNDUP FOR ARKANSAS
NATIONAL WEATHER SERVICE LITTLE ROCK AR
300 AM CST MON FEB 08 2016

NOTE: "FAIR" INDICATES FEW OR NO CLOUDS BELOW 12,000 FEET WITH NO
SIGNIFICANT WEATHER AND/OR OBSTRUCTIONS TO VISIBILITY.

ARZ001-003-010-029-081000-
NORTHWEST ARKANSAS

CITY           SKY/WX    TMP DP  RH WIND       PRES   REMARKS
FAYETTEVILLE   CLEAR     36  21  54 W12       30.06F
FORT SMITH     CLEAR     40  20  44 W14       30.11F
HARRISON       CLEAR     37  19  48 W14       29.97F
BENTONVILLE    CLEAR     37  18  44 NW16G23   30.05F
ROGERS         CLEAR     36  19  50 NW17G26   30.04F
SILOAM SPGS    CLEAR     36  16  44 NW16      30.08S
HIGHFILL       CLEAR     37  20  50 NW17G26   30.05F
$$

ARZ004-005-016-081000-
NORTH CENTRAL ARKANSAS

CITY           SKY/WX    TMP DP  RH WIND       PRES   REMARKS
BATESVILLE     PTCLDY    43  18  36 W12G17    29.97F
FLIPPIN        CLEAR     39  18  41 W8        29.95F
MTN HOME       PTCLDY    39  21  48 NW8       29.95F
$$

ARZ040-041-081000-
WEST CENTRAL ARKANSAS

CITY           SKY/WX    TMP DP  RH WIND       PRES   REMARKS
MENA           CLEAR     45  21  39 W14       30.10F
MOUNT IDA      CLEAR     45  20  36 NW6       30.05F
$$

ARZ009-017-025-026-028-081000-
NORTHEAST ARKANSAS

CITY           SKY/WX    TMP DP  RH WIND       PRES   REMARKS
CORNING        FAIR      41  25  52 NW26      29.91S
JONESBORO      CLEAR     42  22  44 NW13G25   29.92F
NEWPORT        CLEAR     43  21  41 NW14G23   29.96F
WALNUT RIDGE   CLEAR     43  19  39 NW16G26   29.93R
BLYTHEVILLE    CLEAR     44  25  47 W15G25    29.89F
$$

ARZ022-023-033-042-044-081000-
CENTRAL ARKANSAS

CITY           SKY/WX    TMP DP  RH WIND       PRES   REMARKS
LITTLE ROCK    PTCLDY    47  19  33 W16G24    30.03S
N LITTLE ROCK    N/A     45  22  39 W8G17     30.03S
JACKSONVILLE   CLEAR     46  20  35 W12       30.00F
SEARCY         CLEAR     43  20  39 VRB7      30.00F
HOT SPRINGS    CLEAR     47  20  34 NW10G16   30.05F
RUSSELLVILLE   CLEAR     42  21  43 W9        30.03F
CLINTON        FAIR      41  18  38 CALM      30.00F
$$

ARZ036-081000-
EAST ARKANSAS

CITY           SKY/WX    TMP DP  RH WIND       PRES   REMARKS
WEST MEMPHIS   PTCLDY    43  29  57 VRB5      29.93F
$$

ARZ050-053-066-070-073-081000-
SOUTHWEST ARKANSAS

CITY           SKY/WX    TMP DP  RH WIND       PRES   REMARKS
ARKADELPHIA    FAIR      48  24  39 NW14      30.08S
CAMDEN         CLOUDY    46  25  42 W7        30.06S
TEXARKANA      CLEAR     47  26  44 NW15G23   30.12S
EL DORADO      PTCLDY    48  28  46 NW13      30.07F
DE QUEEN       CLEAR     46  22  38 NW13      30.13F
$$

ARZ056-057-069-081000-
SOUTHEAST ARKANSAS

CITY           SKY/WX    TMP DP  RH WIND       PRES   REMARKS
PINE BLUFF     CLOUDY    49  25  39 NW17G26   30.03R
STUTTGART      CLEAR     45  27  49 W13       30.01R
MONTICELLO     MOCLDY    48  29  47 NW8G18    30.01F

$$






USA.gov is the U.S. government's official web portal to all federal, state and local government web resources and services.